Ord, NE

2:04 PM CST on December 11, 2017 (GMT -0600)
Sharp

Weather History for KODX - May, 2013

Change the Weather History Date:

Sunday, May 12, 2013

  Actual Average Record
Temperature  
Mean Temperature 52 °F 58 °F  
Max Temperature 69 °F 70 °F 86 °F (2007)
Min Temperature 35 °F 45 °F 28 °F (2015)
Degree Days  
Heating Degree Days 13 8  
Month to date heating degree days 184 116  
Since 1 July heating degree days 6786 6469  
Cooling Degree Days 0 1  
Month to date cooling degree days 0 8  
Year to date cooling degree days 1 10  
Growing Degree Days 3 (Base 50)    
Moisture  
Dew Point 33 °F    
Average Humidity 55    
Maximum Humidity 82    
Minimum Humidity 28    
Precipitation  
Precipitation 0.00 in 0.11 in 1.46 in (2005)
Month to date precipitation 1.38 1.29  
Year to date precipitation 6.12 6.14  
Sea Level Pressure  
Sea Level Pressure 30.17 in    
Wind  
Wind Speed 7 mph (SSE)    
Max Wind Speed 17 mph    
Max Gust Speed 24 mph    
Visibility 10 miles    
Events      
T = Trace of Precipitation, MM = Missing Value Source: NWS Daily Summary

Daily Weather History Graph

Daily Weather History Graph

Search for Another Location

Airport or City:

Trip Planner

Search our weather history database for the weather conditions in past years. The results will help you decide how hot, cold, wet, or windy it might be!

Date:

Astronomy

May. 12, 2013 Rise Set
Actual Time 6:19 AM CDT 8:45 PM CDT
Civil Twilight 5:47 AM CDT 9:17 PM CDT
Nautical Twilight 5:08 AM CDT 9:56 PM CDT
Astronomical Twilight 4:25 AM CDT 10:40 PM CDT
Moon 8:15 AM CDT (5/12) 11:14 PM CDT (5/12)
Length of Visible Light 15h 29m
Length of Day
14h 26m
Waxing Crescent, 7% of the Moon is Illuminated
May 12
Waxing Crescent
May 17
First Quarter
May 24
Full
May 31
Last Quarter
Jun 8
New

Hourly Weather History & Observations

Time (CDT) Temp. Windchill Dew Point Humidity Pressure Visibility Wind Dir Wind Speed Gust Speed Precip Events Conditions
12:53 AM 39.0 °F 35.7 °F 30.9 °F 73% 30.28 in 10.0 mi SW 4.6 mph - N/A   Clear
1:53 AM 39.9 °F - 30.9 °F 70% 30.28 in 10.0 mi Calm Calm - N/A   Scattered Clouds
2:53 AM 41.0 °F - 35.1 °F 79% 30.29 in 10.0 mi Calm Calm - N/A   Overcast
3:53 AM 42.1 °F - 34.0 °F 73% 30.27 in 10.0 mi Calm Calm - N/A   Overcast
4:53 AM 39.9 °F - 33.1 °F 77% 30.26 in 10.0 mi Calm Calm - N/A   Mostly Cloudy
5:53 AM 37.9 °F - 30.9 °F 76% 30.24 in 10.0 mi Calm Calm - N/A   Partly Cloudy
6:53 AM 37.0 °F - 32.0 °F 82% 30.25 in 10.0 mi Calm Calm - N/A   Partly Cloudy
7:53 AM 43.0 °F 39.5 °F 30.0 °F 60% 30.24 in 10.0 mi SSE 5.8 mph - N/A   Clear
8:53 AM 50.0 °F - 26.1 °F 39% 30.23 in 10.0 mi SE 10.4 mph - N/A   Clear
9:53 AM 53.1 °F - 28.0 °F 38% 30.23 in 10.0 mi SE 12.7 mph - N/A   Clear
10:53 AM 55.9 °F - 26.1 °F 32% 30.22 in 10.0 mi SE 10.4 mph 20.7 mph N/A   Clear
11:53 AM 60.1 °F - 28.0 °F 30% 30.20 in 10.0 mi SSE 11.5 mph 21.9 mph N/A   Clear
12:53 PM 61.0 °F - 28.0 °F 29% 30.19 in 10.0 mi SSE 13.8 mph 21.9 mph N/A   Clear
1:53 PM 64.0 °F - 30.0 °F 28% 30.16 in 10.0 mi ESE 10.4 mph - N/A   Clear
2:53 PM 66.0 °F - 33.1 °F 29% 30.14 in 10.0 mi SSE 11.5 mph 19.6 mph N/A   Clear
3:53 PM 66.9 °F - 34.0 °F 30% 30.12 in 10.0 mi South 12.7 mph 20.7 mph N/A   Clear
4:53 PM 68.0 °F - 35.1 °F 30% 30.10 in 10.0 mi SSW 6.9 mph - N/A   Clear
5:53 PM 69.1 °F - 36.0 °F 30% 30.09 in 10.0 mi SSE 8.1 mph - N/A   Clear
6:53 PM 68.0 °F - 36.0 °F 31% 30.07 in 10.0 mi South 3.5 mph - N/A   Clear
7:53 PM 68.0 °F - 37.0 °F 32% 30.05 in 10.0 mi SE 4.6 mph - N/A   Clear
8:53 PM 63.0 °F - 39.0 °F 41% 30.04 in 10.0 mi SE 5.8 mph - N/A   Clear
9:53 PM 59.0 °F - 39.9 °F 49% 30.06 in 10.0 mi SE 5.8 mph - N/A   Clear
10:53 PM 57.9 °F - 39.9 °F 51% 30.06 in 10.0 mi SSE 11.5 mph - N/A   Clear
11:53 PM 55.0 °F - 41.0 °F 59% 30.06 in 10.0 mi South 9.2 mph - N/A   Clear